Miscellaneous Local Product
Issued by NWS North Platte, NE

Home | Current Version | Previous Version | Graphics & Text | Print | Product List | Glossary On
Versions: 1 2 3 4 5 6 7 8 9 10 11 12 13 14 15 16 17 18 19 20 21 22 23 24 25 26 27 28 29 30 31 32 33 34 35 36 37 38 39 40 41 42 43 44 45 46 47 48 49 50
000
AXUS43 KLBF 250710
MISLBF


WESTERN AND NORTH CENTRAL NEBRASKA HOURLY WEATHER ROUNDUP
NATIONAL WEATHER SERVICE NORTH PLATTE NE
100 AM CST SUN JAN 25 2015

***STATIONS NOT REPORTING VARIABLES SUCH AS SKY/WEATHER OR
PRESSURE ARE PROVIDED BY THE NEBRASKA DEPARTMENT OF
ROADS...RAWS...AND APRS NETWORKS...AND ARE NOT UNDER
NATIONAL WEATHER SERVICE QUALITY CONTROL***

...OBSERVATIONS IN AND NEAR THE EASTERN PANHANDLE OF NEBRASKA...

CITY           SKY/WX    TMP DP  RH WIND       PRES   REMARKS
PINE RIDGE     CLEAR     29  23  78 SW6       29.99R WCI  23
CHADRON        CLEAR     36  28  73 NW22G31   30.03R WCI  25
ALLIANCE       CLEAR     36  25  64 NW23      30.00S WCI  24
SIDNEY         CLEAR     36  26  67 NW20      30.06F WCI  25
$$

...OBSERVATIONS IN NORTH CENTRAL NEBRASKA...

CITY           SKY/WX    TMP DP  RH WIND       PRES   REMARKS
VALENTINE      MOCLDY    40  30  67 NW30G49   29.87R WCI  28
THEDFORD       PTCLDY    41  31  67 NW33G45   29.88R
AINSWORTH      CLOUDY    38  34  86 NW29      29.86R WCI  26
O`NEILL        DRIZZLE   37  35  90 N24G41    29.78R WCI  26
ORD            CLOUDY    41  34  76 NW29G43   29.76R
BROKEN BOW     CLOUDY    44  31  60 NW36G49   29.81R
$$

...OBSERVATIONS IN SOUTHWEST NEBRASKA AND FAR NORTHEAST COLORADO...

CITY           SKY/WX    TMP DP  RH WIND       PRES   REMARKS
WRAY           FAIR      39  29  67 W21G29    30.05S WCI  29
HOLYOKE        FAIR      41  30  65 NW20G25   30.03S
IMPERIAL       CLEAR     39  27  62 NW21G28   29.99R WCI  29
OGALLALA       CLEAR     37  29  73 NW18      29.98S WCI  27
NORTH PLATTE   CLEAR     35  29  78 NW10      29.91R WCI  27
MCCOOK         CLEAR     42  30  62 NW18G30   29.93S
LEXINGTON      PTCLDY    44  31  60 NW29G44   29.85S
$$

...NORTH PLATTE AREA...

CITY           SKY/WX    TMP DP  RH WIND       PRES   REMARKS
AIRPORT        CLEAR     35  29  78 NW10      29.91R WCI  27
$$

...SOME WEATHER OBSERVATIONS FROM AROUND THE REGION...

CITY           SKY/WX    TMP DP  RH WIND       PRES   REMARKS
DENVER         MOCLDY    33  27  78 S6        30.15F WCI  28
LARAMIE        CLOUDY    31  23  72 W13       30.16F WCI  21
CHEYENNE       CLOUDY    38  26  62 NW20G28   30.12F WCI  28
SCOTTSBLUFF    PTCLDY    38  28  67 W25G32    30.06F WCI  27
RAPID CITY     CLEAR     38  25  59 NW24      29.98S WCI  27
PIERRE         CLOUDY    39  35  86 NW21G26   29.86R WCI  29
WINNER         LGT RAIN  38  36  92 NW20      29.86R FOG     WCI  28
SIOUX FALLS    LGT SNOW  33  31  92 N16       29.68R FOG     WCI  23
OMAHA          LGT RAIN  42  38  85 NW22      29.61S
GRAND ISLAND   CLOUDY    42  36  79 NW28G33   29.76R
KANSAS CITY    LGT RAIN  45  43  93 W13       29.65S
WICHITA        CLOUDY    53  36  52 NW15G25   29.82S
HAYS           CLOUDY    46  30  53 NW21G33   29.89S
LIBERAL        PTCLDY    45  30  57 NW14      30.05F
GOODLAND       CLOUDY    41  29  62 NW26G35   30.03S
$$



USA.gov is the U.S. government's official web portal to all federal, state and local government web resources and services.